Satellite: LIBERT
Catalog number: 31129
Epoch time:      08052.78216199
Element set:     767
Inclination:      098.0542 deg
RA of node:       121.1064 deg
Eccentricity:    0.0102435
Arg of perigee:   335.3076 deg
Mean anomaly:     024.3203 deg
Mean motion:   14.52005060 rev/day
Decay rate:       3.37e-06 rev/day^2
Epoch rev:            4502
Checksum:              249

/EX
SB KEPS @ AMSAT  $ORB08052.W
Orbital Elements  08052.WEATHER

HR AMSAT ORBITAL ELEMENTS FOR WEATHER SATELLITES
FROM WA5QGD FORT WORTH,TX February 21, 2008
Send Subscribe/unsubscribe to KEPS at 
http://www.amsat.org/mailman/listinfo/keps
BID: ORB08052.W
TO ALL RADIO AMATEURS BT

Satellite: NOAA-10
Catalog number: 16969
Epoch time:      08051.66816396
Element set:    0015
Inclination:      098.7324 deg
RA of node:       073.8182 deg
Eccentricity:    0.0012556
Arg of perigee:   160.2634 deg
Mean anomaly:     199.9045 deg
Mean motion:   14.27350928 rev/day
Decay rate:        2.0e-07 rev/day^2
Epoch rev:           11467
Checksum:              310

Satellite: NOAA-11
Catalog number: 19531
Epoch time:      08051.84740094
Element set:    0049
Inclination:      098.7987 deg
RA of node:       142.8138 deg
Eccentricity:    0.0012178
Arg of perigee:   045.5405 deg
Mean anomaly:     314.6748 deg
Mean motion:   14.14865768 rev/day
Decay rate:       -5.3e-07 rev/day^2
Epoch rev:           00131
Checksum:              309

Satellite: NOAA-12
Catalog number: 21263
Epoch time:      08051.84564103
Element set:    0556
Inclination:      098.7652 deg
RA of node:       053.8150 deg
Eccentricity:    0.0013422
Arg of perigee:   105.2353 deg
Mean anomaly:     255.0290 deg
Mean motion:   14.25516938 rev/day
Decay rate:       -5.2e-07 rev/day^2
Epoch rev:           87167
Checksum:              283

Satellite: MET-3/5
Catalog number: 21655
Epoch time:      08051.89645907
Element set:    0462
Inclination:      082.5559 deg
RA of node:       187.2261 deg
Eccentricity:    0.0012437
Arg of perigee:   309.8299 deg
Mean anomaly:     050.1728 deg
Mean motion:   13.17012589 rev/day
Decay rate:        5.1e-07 rev/day^2
Epoch rev:           79414
Checksum:              321

Satellite: MET-2/21
Catalog number: 22782
Epoch time:      08051.77055047
Element set:    0070
Inclination:      082.5461 deg
RA of node:       204.6993 deg
Eccentricity:    0.0021098
Arg of perigee:   258.9851 deg
Mean anomaly:     100.8942 deg
Mean motion:   13.83625860 rev/day
Decay rate:        4.1e-07 rev/day^2
Epoch rev:           73089
Checksum:              308

Satellite: OKEAN-4
Catalog number: 23317
Epoch time:      08051.69053829
Element set:    0512
Inclination:      082.5349 deg
RA of node:       064.7007 deg
Eccentricity:    0.0023051
Arg of perigee:   150.1323 deg
Mean anomaly:     210.1208 deg
Mean motion:   14.82579706 rev/day
Decay rate:       2.06e-06 rev/day^2
Epoch rev:           72087
Checksum:              270

Satellite: NOAA-14
Catalog number: 23455
Epoch time:      08051.70960858
Element set:    0030
Inclination:      098.9589 deg
RA of node:       123.8353 deg
Eccentricity:    0.0010357
Arg of perigee:   115.8036 deg
Mean anomaly:     244.4209 deg
Mean motion:   14.13733491 rev/day
Decay rate:      -3.16e-06 rev/day^2
Epoch rev:           67775
Checksum:              311

Satellite: SICH-1
Catalog number: 23657
Epoch time:      08051.69994121
Element set:    0311
Inclination:      082.5262 deg
RA of node:       205.6390 deg
Eccentricity:    0.0024874
Arg of perigee:   142.9801 deg
Mean anomaly:     217.3104 deg
Mean motion:   14.81552468 rev/day
Decay rate:        3.9e-07 rev/day^2
Epoch rev:           67282
Checksum:              294

Satellite: NOAA-15
Catalog number: 25338
Epoch time:      08051.79193915
Element set:    0361
Inclination:      098.5485 deg
RA of node:       046.6705 deg
Eccentricity:    0.0011138
Arg of perigee:   029.4241 deg
Mean anomaly:     330.7534 deg
Mean motion:   14.24687311 rev/day
Decay rate:       1.08e-06 rev/day^2
Epoch rev:           50808
Checksum:              300

Satellite: RESURS
Catalog number: 25394
Epoch time:      08051.70937345
Element set:    0870
Inclination:      098.4035 deg
RA of node:       100.9305 deg
Eccentricity:    0.0001457
Arg of perigee:   147.0972 deg
Mean anomaly:     213.0299 deg
Mean motion:   14.24153181 rev/day
Decay rate:       -3.6e-07 rev/day^2
Epoch rev:           49972
Checksum:              291

Satellite: FENGYUN1
Catalog number: 25730
Epoch time:      08051.92228418
Element set:    0364
Inclination:      098.7159 deg
RA of node:       031.7085 deg
Eccentricity:    0.0021615
Arg of perigee:   139.4527 deg
Mean anomaly:     220.8259 deg
Mean motion:   14.07695939 rev/day
Decay rate:       6.71e-06 rev/day^2
Epoch rev:           45246
Checksum:              315

Satellite: OKEAN-0
Catalog number: 25860
Epoch time:      08051.57087997
Element set:    0295
Inclination:      097.7437 deg
RA of node:       047.3648 deg
Eccentricity:    0.0000816
Arg of perigee:   045.4747 deg
Mean anomaly:     314.6526 deg
Mean motion:   14.73503389 rev/day
Decay rate:        5.7e-07 rev/day^2
Epoch rev:           46207
Checksum:              330

Satellite: NOAA-16
Catalog number: 26536
Epoch time:      08051.90157565
Element set:    0817
Inclination:      099.1477 deg
RA of node:       038.5565 deg
Eccentricity:    0.0010383
Arg of perigee:   190.3113 deg
Mean anomaly:     169.7839 deg
Mean motion:   14.12468610 rev/day
Decay rate:      -1.86e-06 rev/day^2
Epoch rev:           38221
Checksum:              317

Satellite: NOAA-17
Catalog number: 27453
Epoch time:      08051.77789862
Element set:    0815
Inclination:      098.5496 deg
RA of node:       119.7410 deg
Eccentricity:    0.0012800
Arg of perigee:   091.3447 deg
Mean anomaly:     268.9194 deg
Mean motion:   14.23951075 rev/day
Decay rate:       1.78e-06 rev/day^2
Epoch rev:           29409
Checksum:              340

Satellite: NOAA-18
Catalog number: 28654
Epoch time:      08051.77861433
Element set:    0326
Inclination:      098.8567 deg
RA of node:       354.2202 deg
Eccentricity:    0.0013514
Arg of perigee:   288.1303 deg
Mean anomaly:     071.8398 deg
Mean motion:   14.11136990 rev/day
Decay rate:      -1.52e-06 rev/day^2
Epoch rev:           14191
Checksum:              304

/EX
SB KEPS @ AMSAT  $ORB08052.M
Orbital Elements  08052.MISC

HR AMSAT ORBITAL ELEMENTS FOR MANNED AND MISCELLANEOUS SATELLITES
FROM WA5QGD FORT WORTH,TX February 21, 2008
Send Subscribe/unsubscribe to KEPS at 
http://www.amsat.org/mailman/listinfo/keps
BID: ORB08052.M
TO ALL RADIO AMATEURS BT

Satellite: HUBBLE
Catalog number: 20580
Epoch time:      08051.93657217
Element set:    0078
Inclination:      028.4684 deg
RA of node:       007.9414 deg
Eccentricity:    0.0003994
Arg of perigee:   215.8170 deg
Mean anomaly:     144.2149 deg
Mean motion:   15.00339276 rev/day
Decay rate:       3.45e-06 rev/day^2
Epoch rev:           77735
Checksum:              301

Satellite: UARS
Catalog number: 21701
Epoch time:      08052.91246653
Element set:     297
Inclination:      056.9775 deg
RA of node:       308.3570 deg
Eccentricity:    0.0081878
Arg of perigee:   318.5306 deg
Mean anomaly:     040.9556 deg
Mean motion:   15.50657589 rev/day
Decay rate:      4.387e-05 rev/day^2
Epoch rev:           90445
Checksum:              335

Satellite: PO-34
Catalog number: 25520
Epoch time:      08052.89623248
Element set:     936
Inclination:      028.4592 deg
RA of node:       237.3082 deg
Eccentricity:    0.0005652
Arg of perigee:   099.1972 deg
Mean anomaly:     260.9256 deg
Mean motion:   15.17136363 rev/day
Decay rate:       5.18e-06 rev/day^2
Epoch rev:           51548
Checksum:              319

Satellite: ISS
Catalog number: 25544
Epoch time:      08053.05680841
Element set:     967
Inclination:      051.6397 deg
RA of node:       255.0029 deg
Eccentricity:    0.0007854
Arg of perigee:   066.6260 deg
Mean anomaly:     072.0350 deg
Mean motion:   15.77394032 rev/day
Decay rate:     1.0540e-04 rev/day^2
Epoch rev:           53020
Checksum:              279

Satellite: OO-38
Catalog number: 26063
Epoch time:      08052.71024202
Element set:     141
Inclination:      100.2075 deg
RA of node:       106.2257 deg
Eccentricity:    0.0036966
Arg of perigee:   177.0920 deg
Mean anomaly:     183.0482 deg
Mean motion:   14.35827714 rev/day
Decay rate:       -2.9e-07 rev/day^2
Epoch rev:           42285
Checksum:              273

Satellite: UWE-1
Catalog number: 28892
Epoch time:      08052.68286486
Element set:     981
Inclination:      098.1104 deg
RA of node:       309.0269 deg
Eccentricity:    0.0018374
Arg of perigee:   055.6092 deg
Mean anomaly:     304.6832 deg
Mean motion:   14.59594604 rev/day
Decay rate:        9.0e-07 rev/day^2
Epoch rev:           12360
Checksum:              318

Satellite: CO-58
Catalog number: 28895
Epoch time:      08052.65406235
Element set:     953
Inclination:      098.1155 deg
RA of node:       309.3089 deg
Eccentricity:    0.0018970
Arg of perigee:   055.8021 deg
Mean anomaly:     304.4994 deg
Mean motion:   14.59636881 rev/day
Decay rate:       1.44e-06 rev/day^2
Epoch rev:           12348
Checksum:              336

Satellite: NCUBE2
Catalog number: 28897
Epoch time:      08051.67250170
Element set:    0485
Inclination:      098.1101 deg
RA of node:       308.2865 deg
Eccentricity:    0.0018170
Arg of perigee:   059.5259 deg
Mean anomaly:     300.7767 deg
Mean motion:   14.59804939 rev/day
Decay rate:       1.28e-06 rev/day^2
Epoch rev:           11562
Checksum:              316

